sat.trackr.live / text

‹ back to catalog

QIANFAN-21

NORAD 61554 · 2024-185C

PAYLOAD ACTIVE UNKNOWN

§ Identity

Operator
Country
PRC
Launch date
2024-10-15
Launch site
TAISC
Launch vehicle
Mass (kg)
RCS (m²)

External: N2YO · Heavens-Above · Gunter

§ Orbital elements

Epoch: 2026-09-22T21:07:07.160736Z

Period
101.20 min
Inclination
88.9781°
Eccentricity
0.0011782
Mean motion
14.22935410 rev/d
Perigee alt
807.0 km
Apogee alt
823.9 km
Semi-major
7,193.6 km
B*
1.6198e-4
RAAN
43.7093°
Arg perigee
148.3557°
Mean anomaly
211.8345°
Rev number
11,037

§ Raw data

QIANFAN-211 61554U 24185C   26265.87994399  .00000379  00000+0  16198-3 0  99962 61554  88.9781  43.7093 0011782 148.3557 211.8345 14.22935410110379

JSON: /api/v1/satellites/61554 · /tle

For live sub-satellite position, see the globe view (requires WebGL).

§ Visibility from observer

Set your observer location to see the next 7 days of passes ≥ 10°. The values pass through the URL so the page stays shareable.

No JS? Fill the form by hand. The geolocation button needs JavaScript.